Location: Unspecified
(0.0000°N, 0.0000°E)
Time: 18:39:48
(UTC+00:00)

Envisat - Pass Details

Date: 12 February 2018
Orbit: 764 x 766 km, 98.2° (Epoch: 22 February)

Event Time Altitude Azimuth Distance (km) Brightness Sun altitude
Rises 20:53:35 0° 197° (SSW) 3,231 6.6 -38.5°
Reaches altitude 10° 20:56:36 10° 216° (SW) 2,302 6.0 -39.3°
Maximum altitude 20:59:56 18° 257° (WSW) 1,820 5.5 -40.0°
Enters shadow 21:01:41 15° 282° (WNW) 1,964 5.6 -40.5°
